{"data":{"norad_id":58182,"intl_designator":"2023-167H","name":"STARLINK-30778","alt_names":[],"object_type":"PAYLOAD","status":"ACTIVE","operator":null,"country":"US","launch_date":"2023-10-30","launch_site_code":"AFETR","launch_vehicle":null,"mission":null,"orbit_class":"UNKNOWN","rcs_meters":null,"size_class":null,"mass_kg":null,"dimensions":null,"purposes":["comms"],"wikipedia_slug":null,"has_3d_model":false,"image_url":null,"decayed_at":null,"tle_current":{"epoch":"2026-05-25T04:11:24.720288Z","epoch_age_seconds":63469,"freshness":"FRESH","line1":"1 58182U 23167H   26145.17459167  .00001011  00000+0  46253-4 0  9997","line2":"2 58182  43.0028  71.3483 0000824 273.5687  86.5071 15.27580817142683","mean_motion":15.27580817,"eccentricity":8.24e-5,"inclination_deg":43.0028,"raan_deg":71.3483,"arg_perigee_deg":273.5687,"mean_anomaly_deg":86.5071,"bstar":4.6253e-5,"rev_number":14268,"period_min":94.266698296723,"perigee_km":482.4812881161,"apogee_km":483.61201118156,"semimajor_km":6861.1836496488,"source":"CELESTRAK","updated_at":"2026-05-25T13:38:18.569582Z"}}}